• In Czech Republic
  • List of Countries
  • For 7 days
  • Water Temperature
  • Satellite Maps
  • Weather Map
  • Weather Widgets
  • user-avatar
    Login

    Hourly Weather Midyat

    Today, 16 December, Saturday

    Time Temperature Precipitation Wind Pressure Humidity
    00:00 +7°C° 0 mm 1 mps 683 mmHg 40%
    01:00 +7°C° 0 mm 1 mps 683 mmHg 41%
    02:00 +7°C° 0 mm 1 mps 683 mmHg 41%
    03:00 +7°C° 0 mm 1 mps 683 mmHg 41%
    04:00 +6°C° 0 mm 1 mps 683 mmHg 41%
    05:00 +6°C° 0 mm 1 mps 683 mmHg 42%
    06:00 +6°C° 0 mm 1 mps 683 mmHg 42%
    07:00 +7°C° 0 mm 1 mps 683 mmHg 41%
    08:00 +7°C° 0 mm 1 mps 684 mmHg 40%
    09:00 +7°C° 0 mm 0 mps 684 mmHg 39%
    10:00 +9°C° 0 mm 0 mps 684 mmHg 35%
    11:00 +10°C° 0 mm 0 mps 685 mmHg 32%
    12:00 +11°C° 0 mm 0 mps 685 mmHg 28%
    13:00 +12°C° 0 mm 0 mps 685 mmHg 27%
    14:00 +12°C° 0 mm 0 mps 685 mmHg 27%
    15:00 +12°C° 0 mm 0 mps 684 mmHg 27%
    16:00 +11°C° 0 mm 0 mps 684 mmHg 31%
    17:00 +10°C° 0 mm 0 mps 684 mmHg 35%
    18:00 +8°C° 0 mm 0 mps 684 mmHg 40%
    19:00 +8°C° 0 mm 0 mps 684 mmHg 41%
    20:00 +8°C° 0 mm 0 mps 684 mmHg 42%
    21:00 +7°C° 0 mm 0 mps 684 mmHg 43%
    22:00 +7°C° 0 mm 0 mps 684 mmHg 44%
    23:00 +7°C° 0 mm 0 mps 684 mmHg 45%

    Tomorrow, 17 December, Sunday

    Time Temperature Precipitation Wind Pressure Humidity
    00:00 +6°C° 0 mm 0 mps 684 mmHg 45%
    01:00 +6°C° 0 mm 0 mps 684 mmHg 46%
    02:00 +6°C° 0 mm 0 mps 685 mmHg 47%
    03:00 +6°C° 0 mm 0 mps 685 mmHg 48%
    04:00 +5°C° 0 mm 0 mps 684 mmHg 49%
    05:00 +6°C° 0 mm 1 mps 684 mmHg 50%
    06:00 +6°C° 0 mm 1 mps 684 mmHg 51%
    07:00 +7°C° 0 mm 1 mps 685 mmHg 49%
    08:00 +7°C° 0 mm 0 mps 685 mmHg 48%
    09:00 +7°C° 0 mm 0 mps 686 mmHg 47%
    10:00 +9°C° 0 mm 0 mps 686 mmHg 44%
    11:00 +10°C° 0 mm 0 mps 686 mmHg 41%
    12:00 +12°C° 0 mm 1 mps 686 mmHg 39%
    13:00 +12°C° 0 mm 1 mps 685 mmHg 41%
    14:00 +13°C° 0 mm 1 mps 685 mmHg 43%
    15:00 +13°C° 0 mm 1 mps 685 mmHg 44%
    16:00 +11°C° 0 mm 0 mps 685 mmHg 48%
    17:00 +10°C° 0 mm 0 mps 685 mmHg 51%
    18:00 +9°C° 0 mm 0 mps 685 mmHg 54%
    19:00 +9°C° 0 mm 0 mps 685 mmHg 56%
    20:00 +8°C° 0 mm 0 mps 685 mmHg 57%
    21:00 +8°C° 0 mm 0 mps 685 mmHg 59%
    22:00 +8°C° 0 mm 0 mps 685 mmHg 60%
    23:00 +7°C° 0 mm 0 mps 685 mmHg 60%

    Day after tomorrow, 18 December, Monday

    Time Temperature Precipitation Wind Pressure Humidity
    00:00 +8°C° 0 mm 1 mps 685 mmHg 61%
    01:00 +8°C° 0 mm 1 mps 685 mmHg 62%
    02:00 +8°C° 0 mm 1 mps 685 mmHg 63%
    03:00 +7°C° 0 mm 1 mps 685 mmHg 64%
    04:00 +7°C° 0 mm 1 mps 685 mmHg 64%
    05:00 +7°C° 0 mm 1 mps 685 mmHg 65%
    06:00 +6°C° 0 mm 1 mps 685 mmHg 65%
    07:00 +7°C° 0 mm 1 mps 685 mmHg 62%
    08:00 +8°C° 0 mm 1 mps 685 mmHg 59%
    09:00 +9°C° 0 mm 1 mps 686 mmHg 56%
    10:00 +9°C° 0 mm 2 mps 686 mmHg 52%
    11:00 +10°C° 0 mm 2 mps 686 mmHg 47%
    12:00 +13°C° 0 mm 2 mps 686 mmHg 43%
    13:00 +13°C° 0 mm 2 mps 685 mmHg 42%
    14:00 +13°C° 0 mm 2 mps 685 mmHg 41%
    15:00 +13°C° 0 mm 3 mps 685 mmHg 40%
    16:00 +12°C° 0 mm 2 mps 685 mmHg 42%
    17:00 +10°C° 0 mm 2 mps 685 mmHg 45%
    18:00 +9°C° 0 mm 2 mps 684 mmHg 48%
    19:00 +9°C° 0 mm 2 mps 684 mmHg 48%
    20:00 +8°C° 0 mm 2 mps 685 mmHg 49%
    21:00 +8°C° 0 mm 2 mps 685 mmHg 49%
    22:00 +7°C° 0 mm 2 mps 685 mmHg 50%
    23:00 +7°C° 0 mm 2 mps 685 mmHg 50%

    19 December, Tuesday

    Time Temperature Precipitation Wind Pressure Humidity
    00:00 +7°C° 0 mm 2 mps 685 mmHg 50%
    01:00 +7°C° 0 mm 2 mps 685 mmHg 51%
    02:00 +6°C° 0 mm 2 mps 685 mmHg 51%
    03:00 +5°C° 0 mm 3 mps 685 mmHg 52%
    04:00 +5°C° 0 mm 3 mps 685 mmHg 52%
    05:00 +5°C° 0 mm 3 mps 685 mmHg 52%
    06:00 +5°C° 0 mm 3 mps 685 mmHg 52%
    07:00 +5°C° 0 mm 3 mps 685 mmHg 51%
    08:00 +7°C° 0 mm 3 mps 685 mmHg 49%
    09:00 +8°C° 0 mm 3 mps 685 mmHg 47%
    10:00 +8°C° 0 mm 4 mps 685 mmHg 43%
    11:00 +9°C° 0 mm 5 mps 685 mmHg 39%
    12:00 +11°C° 0 mm 6 mps 685 mmHg 35%
    13:00 +11°C° 0 mm 6 mps 685 mmHg 36%
    14:00 +11°C° 0 mm 6 mps 685 mmHg 38%
    15:00 +11°C° 0 mm 6 mps 685 mmHg 39%
    16:00 +10°C° 0 mm 5 mps 685 mmHg 42%
    17:00 +9°C° 0 mm 5 mps 685 mmHg 46%
    18:00 +8°C° 0 mm 4 mps 685 mmHg 50%
    19:00 +8°C° 0 mm 4 mps 685 mmHg 50%
    20:00 +8°C° 0 mm 4 mps 685 mmHg 50%
    21:00 +8°C° 0 mm 3 mps 685 mmHg 50%
    22:00 +8°C° 0.1 mm 3 mps 685 mmHg 53%
    23:00 +8°C° 0.1 mm 3 mps 685 mmHg 56%

    20 December, Wednesday

    Time Temperature Precipitation Wind Pressure Humidity
    00:00 +7°C° 0.1 mm 3 mps 685 mmHg 59%
    01:00 +7°C° 0.2 mm 3 mps 685 mmHg 64%
    02:00 +7°C° 0.2 mm 3 mps 685 mmHg 69%
    03:00 +7°C° 0.2 mm 3 mps 685 mmHg 74%
    04:00 +5°C° 0.1 mm 3 mps 685 mmHg 76%
    05:00 +5°C° 0.1 mm 3 mps 685 mmHg 79%
    06:00 +6°C° 0.1 mm 2 mps 685 mmHg 81%
    07:00 +5°C° 0.1 mm 3 mps 685 mmHg 80%
    08:00 +7°C° 0.1 mm 3 mps 686 mmHg 80%
    09:00 +7°C° 0.1 mm 3 mps 686 mmHg 80%
    10:00 +8°C° 0.1 mm 3 mps 686 mmHg 77%
    11:00 +8°C° 0.1 mm 3 mps 686 mmHg 75%
    12:00 +8°C° 0.1 mm 4 mps 686 mmHg 73%
    13:00 +8°C° 0 mm 4 mps 686 mmHg 73%
    14:00 +8°C° 0 mm 4 mps 685 mmHg 73%
    15:00 +8°C° 0 mm 4 mps 685 mmHg 73%
    16:00 +8°C° 0.1 mm 4 mps 685 mmHg 76%
    17:00 +7°C° 0.1 mm 4 mps 685 mmHg 80%
    18:00 +8°C° 0.1 mm 3 mps 685 mmHg 83%
    19:00 +7°C° 0.2 mm 3 mps 685 mmHg 84%
    20:00 +7°C° 0.2 mm 3 mps 685 mmHg 85%
    21:00 +7°C° 0.2 mm 3 mps 685 mmHg 87%
    22:00 +7°C° 0.1 mm 3 mps 685 mmHg 86%
    23:00 +7°C° 0.1 mm 3 mps 684 mmHg 85%

    21 December, Thursday

    Time Temperature Precipitation Wind Pressure Humidity
    00:00 +7°C° 0.1 mm 3 mps 684 mmHg 84%
    01:00 +7°C° 0.1 mm 3 mps 684 mmHg 83%
    02:00 +7°C° 0.1 mm 2 mps 684 mmHg 82%
    03:00 +7°C° 0.1 mm 2 mps 684 mmHg 81%
    04:00 +7°C° 0.1 mm 2 mps 683 mmHg 80%
    05:00 +7°C° 0.1 mm 2 mps 683 mmHg 80%
    06:00 +7°C° 0.1 mm 2 mps 683 mmHg 79%
    07:00 +7°C° 0.1 mm 2 mps 683 mmHg 78%
    08:00 +7°C° 0.1 mm 2 mps 683 mmHg 77%
    09:00 +8°C° 0.1 mm 2 mps 683 mmHg 75%
    10:00 +9°C° 0.1 mm 2 mps 683 mmHg 71%
    11:00 +10°C° 0.1 mm 3 mps 682 mmHg 66%
    12:00 +11°C° 0.1 mm 3 mps 682 mmHg 62%
    13:00 +11°C° 0.1 mm 3 mps 681 mmHg 60%
    14:00 +11°C° 0.1 mm 3 mps 681 mmHg 58%
    15:00 +12°C° 0.1 mm 3 mps 680 mmHg 57%
    16:00 +11°C° 0.2 mm 3 mps 680 mmHg 61%
    17:00 +10°C° 0.2 mm 3 mps 679 mmHg 65%
    18:00 +9°C° 0.2 mm 2 mps 679 mmHg 69%
    19:00 +9°C° 0.3 mm 2 mps 679 mmHg 71%
    20:00 +8°C° 0.3 mm 2 mps 679 mmHg 72%
    21:00 +9°C° 0.3 mm 1 mps 679 mmHg 74%
    22:00 +8°C° 0.2 mm 2 mps 679 mmHg 73%
    23:00 +8°C° 0.2 mm 2 mps 679 mmHg 72%
    Show more